,,,PA_Meas_PMT16A,,PR_Meas_QMR101_102,,RH_Meas_QMH101,,SR_Meas_QMS101,,TA_Meas_QMH101,,GenWind,,GenWind,
date,time,status,PA,status,PR,status,RH,status,SR,status,TA,status,DirAvg,status,SpdAvg,
2012-04-28, 00:00:04,VALID,1006.02,VALID,0,VALID,93.5224,VALID,0,VALID,24.0716,VALID,25,VALID,0,
2012-04-28, 00:01:04,VALID,1006.01,VALID,0,VALID,93.5377,VALID,0,VALID,24.0716,VALID,25,VALID,0,
2012-04-28, 00:02:04,VALID,1005.97,VALID,0,VALID,93.5301,VALID,0,VALID,24.0326,VALID,25,VALID,0,
2012-04-28, 00:03:04,VALID,1005.99,VALID,0,VALID,93.4767,VALID,0,VALID,24.0539,VALID,25,VALID,0,
2012-04-28, 00:04:04,VALID,1005.97,VALID,0,VALID,93.4919,VALID,0,VALID,24.0326,VALID,25,VALID,0,
2012-04-28, 00:05:04,VALID,1005.92,VALID,0,VALID,93.5072,VALID,0,VALID,24.0326,VALID,25,VALID,0,
2012-04-28, 00:06:04,VALID,1005.9,VALID,0,VALID,93.5148,VALID,0,VALID,24.0132,VALID,25,VALID,0,
2012-04-28, 00:07:04,VALID,1005.88,VALID,0,VALID,93.4614,VALID,0,VALID,24.015,VALID,25,VALID,0,
2012-04-28, 00:08:04,VALID,1005.86,VALID,0,VALID,93.4309,VALID,0,VALID,23.9937,VALID,25,VALID,0,
2012-04-28, 00:09:04,VALID,1005.85,VALID,0,VALID,93.408,VALID,0,VALID,23.9742,VALID,25,VALID,0,
2012-04-28, 00:10:04,VALID,1005.85,VALID,0,VALID,93.408,VALID,0,VALID,23.9937,VALID,25,VALID,0,
2012-04-28, 00:11:04,VALID,1005.8,VALID,0,VALID,93.4004,VALID,0,VALID,23.9955,VALID,25,VALID,0,
2012-04-28, 00:12:04,VALID,1005.78,VALID,0,VALID,93.4004,VALID,0,VALID,24.015,VALID,25,VALID,0,
2012-04-28, 00:13:04,VALID,1005.79,VALID,0,VALID,93.4004,VALID,0,VALID,23.9742,VALID,25,VALID,0,
2012-04-28, 00:14:04,VALID,1005.75,VALID,0,VALID,93.3622,VALID,0,VALID,23.9761,VALID,25,VALID,0,
2012-04-28, 00:15:04,VALID,1005.75,VALID,0,VALID,93.3851,VALID,0,VALID,23.9761,VALID,25,VALID,0,
2012-04-28, 00:16:04,VALID,1005.74,VALID,0,VALID,93.3928,VALID,0,VALID,23.9548,VALID,25,VALID,0,
2012-04-28, 00:17:04,VALID,1005.73,VALID,0,VALID,93.3851,VALID,0,VALID,23.9353,VALID,25,VALID,0,
2012-04-28, 00:18:04,VALID,1005.7,VALID,0,VALID,93.3546,VALID,0,VALID,23.9566,VALID,25,VALID,0,
2012-04-28, 00:19:04,VALID,1005.66,VALID,0,VALID,93.3241,VALID,0,VALID,23.9177,VALID,25,VALID,0,
2012-04-28, 00:20:04,VALID,1005.66,VALID,0,VALID,93.3622,VALID,0,VALID,23.9177,VALID,25,VALID,0,
2012-04-28, 00:21:04,VALID,1005.62,VALID,0,VALID,93.3241,VALID,0,VALID,23.8964,VALID,25,VALID,0,
2012-04-28, 00:22:04,VALID,1005.64,VALID,0,VALID,93.3394,VALID,0,VALID,23.8751,VALID,25,VALID,0,
2012-04-28, 00:23:04,VALID,1005.57,VALID,0,VALID,93.347,VALID,0,VALID,23.8964,VALID,25,VALID,0,
2012-04-28, 00:24:04,VALID,1005.55,VALID,0,VALID,93.4309,VALID,0,VALID,23.914,VALID,25,VALID,0,
2012-04-28, 00:25:04,VALID,1005.59,VALID,0,VALID,93.4233,VALID,0,VALID,23.9353,VALID,25,VALID,0,
2012-04-28, 00:26:04,VALID,1005.58,VALID,0,VALID,93.4233,VALID,0,VALID,23.9548,VALID,25,VALID,0,
2012-04-28, 00:27:04,VALID,1005.54,VALID,0,VALID,93.3851,VALID,0.0815089,VALID,23.9742,VALID,25,VALID,0,
2012-04-28, 00:28:04,VALID,1005.55,VALID,0,VALID,93.3165,VALID,0,VALID,23.9548,VALID,25,VALID,0,
2012-04-28, 00:29:04,VALID,1005.54,VALID,0,VALID,93.2783,VALID,0,VALID,23.9937,VALID,25,VALID,0,
2012-04-28, 00:30:04,VALID,1005.54,VALID,0,VALID,93.3012,VALID,0,VALID,24.015,VALID,25,VALID,0,
2012-04-28, 00:31:04,VALID,1005.51,VALID,0,VALID,93.2478,VALID,0.0815089,VALID,23.9937,VALID,25,VALID,0,
2012-04-28, 00:32:04,VALID,1005.5,VALID,0,VALID,93.1944,VALID,0,VALID,23.9937,VALID,25,VALID,0,
2012-04-28, 00:33:04,VALID,1005.5,VALID,0,VALID,93.1486,VALID,0.0815089,VALID,23.9724,VALID,25,VALID,0,
2012-04-28, 00:34:04,VALID,1005.45,VALID,0,VALID,93.0952,VALID,0.0815089,VALID,24.0132,VALID,25,VALID,0,
2012-04-28, 00:35:04,VALID,1005.45,VALID,0,VALID,93.0571,VALID,0,VALID,23.9919,VALID,25,VALID,0,
2012-04-28, 00:36:04,VALID,1005.43,VALID,0,VALID,92.9732,VALID,0.0815089,VALID,23.9937,VALID,25,VALID,0,
2012-04-28, 00:37:04,VALID,1005.39,VALID,0,VALID,92.9503,VALID,0,VALID,23.9937,VALID,25,VALID,0,
2012-04-28, 00:38:04,VALID,1005.38,VALID,0,VALID,92.935,VALID,0.0815089,VALID,23.953,VALID,25,VALID,0,
2012-04-28, 00:39:04,VALID,1005.37,VALID,0,VALID,92.9045,VALID,0.0815089,VALID,23.953,VALID,25,VALID,0,
2012-04-28, 00:40:04,VALID,1005.37,VALID,0,VALID,92.8969,VALID,0,VALID,23.9335,VALID,25,VALID,0,
2012-04-28, 00:41:04,VALID,1005.35,VALID,0,VALID,92.9426,VALID,0.0815089,VALID,23.9742,VALID,25,VALID,0,
2012-04-28, 00:42:04,VALID,1005.35,VALID,0,VALID,92.9198,VALID,0.0815089,VALID,23.9548,VALID,25,VALID,0,
2012-04-28, 00:43:04,VALID,1005.36,VALID,0,VALID,92.9274,VALID,0.0815089,VALID,23.9548,VALID,25,VALID,0,
2012-04-28, 00:44:04,VALID,1005.34,VALID,0,VALID,92.9274,VALID,0.0815089,VALID,23.9353,VALID,25,VALID,0,
2012-04-28, 00:45:04,VALID,1005.36,VALID,0,VALID,92.9579,VALID,0.0815089,VALID,23.9548,VALID,25,VALID,0,
2012-04-28, 00:46:04,VALID,1005.37,VALID,0,VALID,92.9655,VALID,0,VALID,23.9548,VALID,25,VALID,0,
2012-04-28, 00:47:04,VALID,1005.36,VALID,0,VALID,92.9884,VALID,0,VALID,23.9335,VALID,25,VALID,0,
2012-04-28, 00:48:04,VALID,1005.36,VALID,0,VALID,92.9045,VALID,0.0815089,VALID,23.9353,VALID,25,VALID,0,
2012-04-28, 00:49:04,VALID,1005.34,VALID,0,VALID,92.874,VALID,0,VALID,23.9353,VALID,25,VALID,0,
2012-04-28, 00:50:04,VALID,1005.32,VALID,0,VALID,92.8587,VALID,0,VALID,23.9761,VALID,25,VALID,0,
2012-04-28, 00:51:04,VALID,1005.32,VALID,0,VALID,92.7977,VALID,0,VALID,23.9353,VALID,25,VALID,0,
2012-04-28, 00:52:04,VALID,1005.32,VALID,0,VALID,92.7443,VALID,0,VALID,23.9353,VALID,25,VALID,0,
2012-04-28, 00:53:04,VALID,1005.29,VALID,0,VALID,92.7519,VALID,0.0815089,VALID,23.9566,VALID,25,VALID,0,
2012-04-28, 00:54:04,VALID,1005.32,VALID,0,VALID,92.7824,VALID,0.0815089,VALID,23.9353,VALID,25,VALID,0,
2012-04-28, 00:55:04,VALID,1005.33,VALID,0,VALID,92.8435,VALID,0.0815089,VALID,23.9353,VALID,25,VALID,0,
2012-04-28, 00:56:04,VALID,1005.33,VALID,0,VALID,92.8664,VALID,0,VALID,23.9353,VALID,25,VALID,0,
2012-04-28, 00:57:04,VALID,1005.32,VALID,0,VALID,92.9045,VALID,0,VALID,23.9353,VALID,25,VALID,0,
2012-04-28, 00:58:04,VALID,1005.3,VALID,0,VALID,92.9274,VALID,0,VALID,23.9371,VALID,25,VALID,0,
2012-04-28, 00:59:04,VALID,1005.31,VALID,0,VALID,92.9655,VALID,0,VALID,23.9353,VALID,25,VALID,0,
2012-04-28, 01:00:04,VALID,1005.31,VALID,0,VALID,92.935,VALID,0.0815089,VALID,23.9353,VALID,25,VALID,0,
2012-04-28, 01:01:04,VALID,1005.26,VALID,0,VALID,92.9198,VALID,0,VALID,23.9353,VALID,25,VALID,0,
2012-04-28, 01:02:04,VALID,1005.25,VALID,0,VALID,92.9198,VALID,0.0815089,VALID,23.914,VALID,25,VALID,0,
2012-04-28, 01:03:04,VALID,1005.24,VALID,0,VALID,92.9121,VALID,0,VALID,23.9548,VALID,25,VALID,0,
2012-04-28, 01:04:04,VALID,1005.18,VALID,0,VALID,92.8892,VALID,0,VALID,23.9548,VALID,25,VALID,0,
2012-04-28, 01:05:04,VALID,1005.17,VALID,0,VALID,92.8969,VALID,0,VALID,23.9566,VALID,25,VALID,0,
2012-04-28, 01:06:04,VALID,1005.15,VALID,0,VALID,92.9045,VALID,0,VALID,23.9548,VALID,25,VALID,0,
2012-04-28, 01:07:04,VALID,1005.1,VALID,0,VALID,92.8816,VALID,0,VALID,23.953,VALID,25,VALID,0,
2012-04-28, 01:08:04,VALID,1005.1,VALID,0,VALID,92.874,VALID,0.0815089,VALID,23.9742,VALID,25,VALID,0,
2012-04-28, 01:09:04,VALID,1005.07,VALID,0,VALID,92.8358,VALID,0,VALID,23.9937,VALID,25,VALID,0,
2012-04-28, 01:10:04,VALID,1005.05,VALID,0,VALID,92.8053,VALID,0.0815089,VALID,23.9937,VALID,25,VALID,0,
2012-04-28, 01:11:04,VALID,1005.05,VALID,0,VALID,92.7367,VALID,0.0815089,VALID,23.9937,VALID,25,VALID,0,
2012-04-28, 01:12:04,VALID,1005.05,VALID,0,VALID,92.6833,VALID,0,VALID,23.9937,VALID,25,VALID,0,
2012-04-28, 01:13:04,VALID,1005.04,VALID,0,VALID,92.6451,VALID,0.0815089,VALID,24.0132,VALID,25,VALID,0,
2012-04-28, 01:14:04,VALID,1005.07,VALID,0,VALID,92.6375,VALID,0.0815089,VALID,24.0132,VALID,25,VALID,0,
2012-04-28, 01:15:04,VALID,1005.03,VALID,0,VALID,92.5765,VALID,0,VALID,24.0132,VALID,25,VALID,0,
2012-04-28, 01:16:04,VALID,1005.06,VALID,0,VALID,92.5307,VALID,0,VALID,24.0114,VALID,25,VALID,0,
2012-04-28, 01:17:04,VALID,1005.05,VALID,0,VALID,92.5383,VALID,0,VALID,24.0326,VALID,25,VALID,0,
2012-04-28, 01:18:04,VALID,1005.01,VALID,0,VALID,92.546,VALID,0.0815089,VALID,24.0132,VALID,25,VALID,0,
2012-04-28, 01:19:04,VALID,1005.01,VALID,0,VALID,92.5154,VALID,0.0815089,VALID,24.0132,VALID,25,VALID,0,
2012-04-28, 01:20:04,VALID,1005.01,VALID,0,VALID,92.5688,VALID,0.0815089,VALID,24.0132,VALID,25,VALID,0,
2012-04-28, 01:21:04,VALID,1005,VALID,0,VALID,92.5688,VALID,0.0815089,VALID,23.9937,VALID,25,VALID,0,
2012-04-28, 01:22:04,VALID,1004.98,VALID,0,VALID,92.5917,VALID,0.0815089,VALID,23.9937,VALID,25,VALID,0,
2012-04-28, 01:23:04,VALID,1004.96,VALID,0,VALID,92.5993,VALID,0.0815089,VALID,23.9937,VALID,25,VALID,0,
2012-04-28, 01:24:04,VALID,1004.99,VALID,0,VALID,92.6299,VALID,0,VALID,23.9955,VALID,25,VALID,0,
2012-04-28, 01:25:04,VALID,1004.96,VALID,0,VALID,92.6146,VALID,0.0815089,VALID,23.9955,VALID,25,VALID,0,
2012-04-28, 01:26:04,VALID,1004.97,VALID,0,VALID,92.607,VALID,0.0815089,VALID,23.9742,VALID,25,VALID,0,
2012-04-28, 01:27:04,VALID,1004.98,VALID,0,VALID,92.6604,VALID,0,VALID,23.9742,VALID,25,VALID,0,
2012-04-28, 01:28:04,VALID,1004.94,VALID,0,VALID,92.7367,VALID,0,VALID,23.9937,VALID,25,VALID,0,
2012-04-28, 01:29:04,VALID,1004.94,VALID,0,VALID,92.7977,VALID,0,VALID,23.9937,VALID,25,VALID,0,
2012-04-28, 01:30:04,VALID,1004.94,VALID,0,VALID,92.813,VALID,0,VALID,23.9937,VALID,25,VALID,0,
2012-04-28, 01:31:04,VALID,1004.94,VALID,0,VALID,92.8435,VALID,0,VALID,23.9937,VALID,25,VALID,0,
2012-04-28, 01:32:04,VALID,1004.93,VALID,0,VALID,92.9121,VALID,0,VALID,23.9724,VALID,25,VALID,0,
2012-04-28, 01:33:04,VALID,1004.95,VALID,0,VALID,92.9274,VALID,0,VALID,23.9937,VALID,25,VALID,0,
2012-04-28, 01:34:04,VALID,1004.94,VALID,0,VALID,92.9274,VALID,0,VALID,23.9742,VALID,25,VALID,0,
2012-04-28, 01:35:04,VALID,1004.91,VALID,0,VALID,92.9961,VALID,0.0815089,VALID,23.9742,VALID,25,VALID,0,
2012-04-28, 01:36:04,VALID,1004.91,VALID,0,VALID,93.0647,VALID,0,VALID,23.9742,VALID,25,VALID,0,
2012-04-28, 01:37:04,VALID,1004.88,VALID,0,VALID,93.1029,VALID,0,VALID,23.9742,VALID,25,VALID,0,
2012-04-28, 01:38:04,VALID,1004.89,VALID,0,VALID,93.1639,VALID,0,VALID,23.9742,VALID,25,VALID,0,
2012-04-28, 01:39:04,VALID,1004.86,VALID,0,VALID,93.2097,VALID,0,VALID,23.9761,VALID,25,VALID,0,
2012-04-28, 01:40:04,VALID,1004.86,VALID,0,VALID,93.2783,VALID,0,VALID,23.9742,VALID,25,VALID,0,
2012-04-28, 01:41:04,VALID,1004.87,VALID,0,VALID,93.3394,VALID,0,VALID,23.9742,VALID,25,VALID,0,
2012-04-28, 01:42:04,VALID,1004.86,VALID,0,VALID,93.3928,VALID,0,VALID,23.9742,VALID,25,VALID,0,
2012-04-28, 01:43:04,VALID,1004.88,VALID,0,VALID,93.4004,VALID,0,VALID,23.9761,VALID,25,VALID,0,
2012-04-28, 01:44:04,VALID,1004.88,VALID,0,VALID,93.4462,VALID,0.0815089,VALID,23.9742,VALID,24,VALID,0,
2012-04-28, 01:45:04,VALID,1004.89,VALID,0,VALID,93.4385,VALID,0.0815089,VALID,23.9742,VALID,24,VALID,0,
2012-04-28, 01:46:04,VALID,1004.91,VALID,0,VALID,93.4156,VALID,0,VALID,23.9742,VALID,17,VALID,0,
2012-04-28, 01:47:04,VALID,1004.91,VALID,0,VALID,93.4385,VALID,0,VALID,23.953,VALID,17,VALID,0,
2012-04-28, 01:48:04,VALID,1004.88,VALID,0,VALID,93.4462,VALID,0.0815089,VALID,23.9761,VALID,17,VALID,0,
2012-04-28, 01:49:04,VALID,1004.89,VALID,0,VALID,93.4385,VALID,0,VALID,23.9548,VALID,17,VALID,0,
2012-04-28, 01:50:04,VALID,1004.88,VALID,0,VALID,93.469,VALID,0,VALID,23.9159,VALID,17,VALID,0,
2012-04-28, 01:51:04,VALID,1004.9,VALID,0,VALID,93.5224,VALID,0,VALID,23.9566,VALID,17,VALID,0,
2012-04-28, 01:52:04,VALID,1004.87,VALID,0,VALID,93.5682,VALID,0,VALID,23.8946,VALID,17,VALID,0,
2012-04-28, 01:53:04,VALID,1004.87,VALID,0,VALID,93.5758,VALID,0.0815089,VALID,23.9159,VALID,17,VALID,0,
2012-04-28, 01:54:04,VALID,1004.88,VALID,0,VALID,93.614,VALID,0.0815089,VALID,23.9177,VALID,17,VALID,0,
2012-04-28, 01:55:04,VALID,1004.83,VALID,0,VALID,93.6064,VALID,0,VALID,23.8964,VALID,17,VALID,0,
2012-04-28, 01:56:04,VALID,1004.8,VALID,0,VALID,93.6216,VALID,0,VALID,23.8769,VALID,17,VALID,0,
2012-04-28, 01:57:04,VALID,1004.8,VALID,0,VALID,93.6598,VALID,0,VALID,23.8575,VALID,17,VALID,0,
2012-04-28, 01:58:04,VALID,1004.78,VALID,0,VALID,93.7055,VALID,0,VALID,23.8575,VALID,17,VALID,0,
2012-04-28, 01:59:04,VALID,1004.76,VALID,0,VALID,93.6903,VALID,0,VALID,23.8593,VALID,17,VALID,0,
2012-04-28, 02:00:04,VALID,1004.76,VALID,0,VALID,93.7284,VALID,0,VALID,23.838,VALID,17,VALID,0,
2012-04-28, 02:01:04,VALID,1004.74,VALID,0,VALID,93.7666,VALID,0,VALID,23.838,VALID,17,VALID,0,
2012-04-28, 02:02:04,VALID,1004.71,VALID,0,VALID,93.8276,VALID,0,VALID,23.838,VALID,17,VALID,0,
2012-04-28, 02:03:04,VALID,1004.69,VALID,0,VALID,93.82,VALID,0,VALID,23.8185,VALID,17,VALID,0,
2012-04-28, 02:04:04,VALID,1004.68,VALID,0,VALID,93.8429,VALID,0,VALID,23.8185,VALID,17,VALID,0,
2012-04-28, 02:05:04,VALID,1004.68,VALID,0,VALID,93.8734,VALID,0,VALID,23.8398,VALID,17,VALID,0,
2012-04-28, 02:06:04,VALID,1004.68,VALID,0,VALID,93.9115,VALID,0,VALID,23.7991,VALID,17,VALID,0,
2012-04-28, 02:07:04,VALID,1004.67,VALID,0,VALID,93.9039,VALID,0,VALID,23.8203,VALID,17,VALID,0,
2012-04-28, 02:08:04,VALID,1004.7,VALID,0,VALID,93.9573,VALID,0.0815089,VALID,23.7991,VALID,17,VALID,0,
2012-04-28, 02:09:04,VALID,1004.69,VALID,0,VALID,93.9802,VALID,0,VALID,23.7796,VALID,17,VALID,0,
2012-04-28, 02:10:04,VALID,1004.7,VALID,0,VALID,94.0183,VALID,0,VALID,23.8009,VALID,17,VALID,0,
2012-04-28, 02:11:04,VALID,1004.69,VALID,0,VALID,94.0107,VALID,0.0815089,VALID,23.7796,VALID,17,VALID,0,
2012-04-28, 02:12:04,VALID,1004.69,VALID,0,VALID,94.0259,VALID,0.0815089,VALID,23.7796,VALID,17,VALID,0,
2012-04-28, 02:13:04,VALID,1004.72,VALID,0,VALID,94.0412,VALID,0.0815089,VALID,23.7796,VALID,17,VALID,0,
2012-04-28, 02:14:04,VALID,1004.72,VALID,0,VALID,94.0641,VALID,0,VALID,23.7601,VALID,17,VALID,0,
2012-04-28, 02:15:04,VALID,1004.7,VALID,0,VALID,94.087,VALID,0,VALID,23.7796,VALID,17,VALID,0,
2012-04-28, 02:16:04,VALID,1004.68,VALID,0,VALID,94.1251,VALID,0,VALID,23.7601,VALID,17,VALID,0,
2012-04-28, 02:17:04,VALID,1004.66,VALID,0,VALID,94.1099,VALID,0.0815089,VALID,23.7796,VALID,17,VALID,0,
2012-04-28, 02:18:04,VALID,1004.65,VALID,0,VALID,94.1251,VALID,0.0815089,VALID,23.7796,VALID,17,VALID,0,
2012-04-28, 02:19:04,VALID,1004.62,VALID,0,VALID,94.1251,VALID,0,VALID,23.7601,VALID,17,VALID,0,
2012-04-28, 02:20:04,VALID,1004.62,VALID,0,VALID,94.0946,VALID,0,VALID,23.7601,VALID,17,VALID,0,
2012-04-28, 02:21:04,VALID,1004.62,VALID,0,VALID,94.0794,VALID,0,VALID,23.7407,VALID,17,VALID,0,
2012-04-28, 02:22:04,VALID,1004.62,VALID,0,VALID,94.087,VALID,0,VALID,23.7407,VALID,17,VALID,0,
2012-04-28, 02:23:04,VALID,1004.59,VALID,0,VALID,94.087,VALID,0,VALID,23.7619,VALID,17,VALID,0,
2012-04-28, 02:24:04,VALID,1004.58,VALID,0,VALID,94.1099,VALID,0,VALID,23.7425,VALID,17,VALID,0,
2012-04-28, 02:25:04,VALID,1004.59,VALID,0,VALID,94.1328,VALID,0,VALID,23.7425,VALID,17,VALID,0,
2012-04-28, 02:26:04,VALID,1004.58,VALID,0,VALID,94.1328,VALID,0,VALID,23.7212,VALID,17,VALID,0,
2012-04-28, 02:27:04,VALID,1004.62,VALID,0,VALID,94.1328,VALID,0,VALID,23.7212,VALID,17,VALID,0,
2012-04-28, 02:28:04,VALID,1004.61,VALID,0,VALID,94.1785,VALID,0,VALID,23.7017,VALID,17,VALID,0,
2012-04-28, 02:29:04,VALID,1004.62,VALID,0,VALID,94.1709,VALID,0,VALID,23.723,VALID,17,VALID,0,
2012-04-28, 02:30:04,VALID,1004.58,VALID,0,VALID,94.2014,VALID,0,VALID,23.7017,VALID,17,VALID,0,
2012-04-28, 02:31:04,VALID,1004.59,VALID,0,VALID,94.209,VALID,0,VALID,23.7425,VALID,17,VALID,0,
2012-04-28, 02:32:04,VALID,1004.6,VALID,0,VALID,94.2319,VALID,0,VALID,23.7212,VALID,17,VALID,0,
2012-04-28, 02:33:04,VALID,1004.6,VALID,0,VALID,94.2396,VALID,0,VALID,23.7619,VALID,17,VALID,0,
2012-04-28, 02:34:04,VALID,1004.62,VALID,0,VALID,94.2243,VALID,0.0815089,VALID,23.7619,VALID,17,VALID,0,
2012-04-28, 02:35:04,VALID,1004.57,VALID,0,VALID,94.2014,VALID,0,VALID,23.7212,VALID,17,VALID,0,
2012-04-28, 02:36:04,VALID,1004.58,VALID,0,VALID,94.1862,VALID,0,VALID,23.7212,VALID,17,VALID,0,
2012-04-28, 02:37:04,VALID,1004.57,VALID,0,VALID,94.1785,VALID,0,VALID,23.7212,VALID,17,VALID,0,
2012-04-28, 02:38:04,VALID,1004.58,VALID,0,VALID,94.148,VALID,0.0815089,VALID,23.7017,VALID,17,VALID,0,
2012-04-28, 02:39:04,VALID,1004.58,VALID,0,VALID,94.1175,VALID,0,VALID,23.7035,VALID,17,VALID,0,
2012-04-28, 02:40:04,VALID,1004.55,VALID,0,VALID,94.087,VALID,0,VALID,23.7035,VALID,17,VALID,0,
2012-04-28, 02:41:04,VALID,1004.54,VALID,0,VALID,94.0717,VALID,0,VALID,23.6841,VALID,17,VALID,0,
2012-04-28, 02:42:04,VALID,1004.54,VALID,0,VALID,94.0641,VALID,0,VALID,23.6646,VALID,17,VALID,0,
2012-04-28, 02:43:04,VALID,1004.54,VALID,0,VALID,94.0488,VALID,0,VALID,23.6452,VALID,17,VALID,0,
2012-04-28, 02:44:04,VALID,1004.53,VALID,0,VALID,94.0641,VALID,0,VALID,23.6646,VALID,17,VALID,0,
2012-04-28, 02:45:04,VALID,1004.52,VALID,0,VALID,94.0641,VALID,0,VALID,23.6859,VALID,17,VALID,0,
2012-04-28, 02:46:04,VALID,1004.53,VALID,0,VALID,94.0717,VALID,0,VALID,23.6646,VALID,17,VALID,0,
2012-04-28, 02:47:04,VALID,1004.51,VALID,0,VALID,94.087,VALID,0,VALID,23.6646,VALID,17,VALID,0,
2012-04-28, 02:48:04,VALID,1004.57,VALID,0,VALID,94.0641,VALID,0,VALID,23.6646,VALID,17,VALID,0,
2012-04-28, 02:49:04,VALID,1004.51,VALID,0,VALID,94.0336,VALID,0,VALID,23.6841,VALID,18,VALID,0,
2012-04-28, 02:50:04,VALID,1004.52,VALID,0,VALID,93.9954,VALID,0,VALID,23.6646,VALID,18,VALID,0,
2012-04-28, 02:51:04,VALID,1004.53,VALID,0,VALID,93.9268,VALID,0,VALID,23.6646,VALID,18,VALID,0,
2012-04-28, 02:52:04,VALID,1004.53,VALID,0,VALID,93.8886,VALID,0,VALID,23.6664,VALID,18,VALID,0,
2012-04-28, 02:53:04,VALID,1004.54,VALID,0,VALID,93.8734,VALID,0,VALID,23.6452,VALID,18,VALID,0,
2012-04-28, 02:54:04,VALID,1004.55,VALID,0,VALID,93.8657,VALID,0,VALID,23.6434,VALID,18,VALID,0,
2012-04-28, 02:55:04,VALID,1004.54,VALID,0,VALID,93.8352,VALID,0,VALID,23.6434,VALID,18,VALID,0,
2012-04-28, 02:56:04,VALID,1004.52,VALID,0,VALID,93.8352,VALID,0,VALID,23.6434,VALID,18,VALID,0,
2012-04-28, 02:57:04,VALID,1004.52,VALID,0,VALID,93.82,VALID,0,VALID,23.6239,VALID,19,VALID,0,
2012-04-28, 02:58:04,VALID,1004.48,VALID,0,VALID,93.82,VALID,0,VALID,23.6239,VALID,26,VALID,0,
2012-04-28, 02:59:04,VALID,1004.5,VALID,0,VALID,93.7971,VALID,0,VALID,23.6452,VALID,31,VALID,0,
2012-04-28, 03:00:04,VALID,1004.49,VALID,0,VALID,93.7361,VALID,0.0815089,VALID,23.6257,VALID,31,VALID,0,
2012-04-28, 03:01:04,VALID,1004.51,VALID,0,VALID,93.675,VALID,0,VALID,23.585,VALID,31,VALID,0,
2012-04-28, 03:02:04,VALID,1004.51,VALID,0,VALID,93.6598,VALID,0,VALID,23.6044,VALID,31,VALID,0,
2012-04-28, 03:03:04,VALID,1004.48,VALID,0,VALID,93.6903,VALID,0,VALID,23.6062,VALID,31,VALID,0,
2012-04-28, 03:04:04,VALID,1004.49,VALID,0,VALID,93.6826,VALID,0,VALID,23.585,VALID,31,VALID,0,
2012-04-28, 03:05:04,VALID,1004.51,VALID,0,VALID,93.6903,VALID,0,VALID,23.6044,VALID,31,VALID,0,
2012-04-28, 03:06:04,VALID,1004.5,VALID,0,VALID,93.6521,VALID,0,VALID,23.6062,VALID,31,VALID,0,
2012-04-28, 03:07:04,VALID,1004.5,VALID,0,VALID,93.6369,VALID,0,VALID,23.585,VALID,31,VALID,0,
2012-04-28, 03:08:04,VALID,1004.49,VALID,0,VALID,93.6216,VALID,0,VALID,23.585,VALID,31,VALID,0,
2012-04-28, 03:09:04,VALID,1004.46,VALID,0,VALID,93.5835,VALID,0,VALID,23.585,VALID,31,VALID,0,
2012-04-28, 03:10:04,VALID,1004.49,VALID,0,VALID,93.5835,VALID,0,VALID,23.5655,VALID,31,VALID,0,
2012-04-28, 03:11:04,VALID,1004.49,VALID,0,VALID,93.5835,VALID,0,VALID,23.6062,VALID,31,VALID,0,
2012-04-28, 03:12:04,VALID,1004.46,VALID,0,VALID,93.5987,VALID,0,VALID,23.585,VALID,31,VALID,0,
2012-04-28, 03:13:04,VALID,1004.46,VALID,0,VALID,93.5911,VALID,0,VALID,23.6062,VALID,31,VALID,0,
2012-04-28, 03:14:04,VALID,1004.45,VALID,0,VALID,93.5453,VALID,0,VALID,23.6044,VALID,31,VALID,0,
2012-04-28, 03:15:04,VALID,1004.46,VALID,0,VALID,93.4996,VALID,0,VALID,23.5655,VALID,31,VALID,0,
2012-04-28, 03:16:04,VALID,1004.45,VALID,0,VALID,93.4767,VALID,0,VALID,23.5655,VALID,31,VALID,0,
2012-04-28, 03:17:04,VALID,1004.44,VALID,0,VALID,93.4614,VALID,0,VALID,23.546,VALID,31,VALID,0,
2012-04-28, 03:18:04,VALID,1004.46,VALID,0,VALID,93.4462,VALID,0,VALID,23.5655,VALID,31,VALID,0,
2012-04-28, 03:19:04,VALID,1004.44,VALID,0,VALID,93.5072,VALID,0,VALID,23.5673,VALID,31,VALID,0,
2012-04-28, 03:20:04,VALID,1004.43,VALID,0,VALID,93.469,VALID,0,VALID,23.546,VALID,31,VALID,0,
2012-04-28, 03:21:04,VALID,1004.45,VALID,0,VALID,93.4233,VALID,0,VALID,23.5266,VALID,31,VALID,0,
2012-04-28, 03:22:04,VALID,1004.43,VALID,0,VALID,93.4462,VALID,0.0815089,VALID,23.5071,VALID,31,VALID,0,
2012-04-28, 03:23:04,VALID,1004.46,VALID,0,VALID,93.4919,VALID,0,VALID,23.5284,VALID,31,VALID,0,
2012-04-28, 03:24:04,VALID,1004.45,VALID,0,VALID,93.469,VALID,0,VALID,23.4894,VALID,31,VALID,0,
2012-04-28, 03:25:04,VALID,1004.44,VALID,0,VALID,93.4919,VALID,0,VALID,23.4487,VALID,31,VALID,0,
2012-04-28, 03:26:04,VALID,1004.45,VALID,0,VALID,93.5377,VALID,0,VALID,23.4682,VALID,31,VALID,0,
2012-04-28, 03:27:04,VALID,1004.44,VALID,0,VALID,93.5987,VALID,0,VALID,23.4894,VALID,31,VALID,0,
2012-04-28, 03:28:04,VALID,1004.45,VALID,0,VALID,93.5911,VALID,0,VALID,23.47,VALID,31,VALID,0,
2012-04-28, 03:29:04,VALID,1004.44,VALID,0,VALID,93.5682,VALID,0,VALID,23.47,VALID,31,VALID,0,
2012-04-28, 03:30:04,VALID,1004.43,VALID,0,VALID,93.5987,VALID,0,VALID,23.4505,VALID,31,VALID,0,
2012-04-28, 03:31:04,VALID,1004.44,VALID,0,VALID,93.6216,VALID,0,VALID,23.4505,VALID,31,VALID,0,
2012-04-28, 03:32:04,VALID,1004.44,VALID,0,VALID,93.6292,VALID,0,VALID,23.4505,VALID,31,VALID,0,
2012-04-28, 03:33:04,VALID,1004.44,VALID,0,VALID,93.7208,VALID,0,VALID,23.4311,VALID,31,VALID,0,
2012-04-28, 03:34:04,VALID,1004.42,VALID,0,VALID,93.8657,VALID,0,VALID,23.4912,VALID,31,VALID,0,
2012-04-28, 03:35:04,VALID,1004.41,VALID,0,VALID,93.9802,VALID,0,VALID,23.5284,VALID,31,VALID,0,
2012-04-28, 03:36:04,VALID,1004.4,VALID,0,VALID,94.0641,VALID,0,VALID,23.5673,VALID,31,VALID,0,
2012-04-28, 03:37:04,VALID,1004.37,VALID,0,VALID,94.0412,VALID,0,VALID,23.5655,VALID,31,VALID,0,
2012-04-28, 03:38:04,VALID,1004.41,VALID,0,VALID,94.0412,VALID,0,VALID,23.6062,VALID,31,VALID,0,
2012-04-28, 03:39:04,VALID,1004.39,VALID,0,VALID,94.0488,VALID,0,VALID,23.6257,VALID,31,VALID,0,
2012-04-28, 03:40:04,VALID,1004.42,VALID,0,VALID,94.0641,VALID,0,VALID,23.6646,VALID,31,VALID,0,
2012-04-28, 03:41:04,VALID,1004.42,VALID,0,VALID,94.0794,VALID,0,VALID,23.6628,VALID,31,VALID,0,
2012-04-28, 03:42:04,VALID,1004.44,VALID,0,VALID,94.0717,VALID,0,VALID,23.7017,VALID,31,VALID,0,
2012-04-28, 03:43:04,VALID,1004.45,VALID,0,VALID,94.0031,VALID,0,VALID,23.6823,VALID,31,VALID,0,
2012-04-28, 03:44:04,VALID,1004.45,VALID,0,VALID,93.9497,VALID,0,VALID,23.7035,VALID,31,VALID,0,
2012-04-28, 03:45:04,VALID,1004.44,VALID,0,VALID,93.9802,VALID,0,VALID,23.7212,VALID,31,VALID,0,
2012-04-28, 03:46:04,VALID,1004.45,VALID,0,VALID,93.8963,VALID,0,VALID,23.723,VALID,31,VALID,0,
2012-04-28, 03:47:04,VALID,1004.44,VALID,0,VALID,93.881,VALID,0,VALID,23.7017,VALID,31,VALID,0,
2012-04-28, 03:48:04,VALID,1004.42,VALID,0,VALID,93.82,VALID,0,VALID,23.7017,VALID,31,VALID,0,
2012-04-28, 03:49:04,VALID,1004.44,VALID,0,VALID,93.8581,VALID,0,VALID,23.7212,VALID,31,VALID,0,
2012-04-28, 03:50:04,VALID,1004.41,VALID,0,VALID,93.8276,VALID,0,VALID,23.723,VALID,31,VALID,0,
2012-04-28, 03:51:04,VALID,1004.4,VALID,0,VALID,93.9115,VALID,0,VALID,23.7425,VALID,31,VALID,0,
2012-04-28, 03:52:04,VALID,1004.39,VALID,0,VALID,93.9573,VALID,0,VALID,23.7425,VALID,31,VALID,0,
2012-04-28, 03:53:04,VALID,1004.38,VALID,0,VALID,93.8505,VALID,0,VALID,23.723,VALID,31,VALID,0,
2012-04-28, 03:54:04,VALID,1004.4,VALID,0,VALID,93.8123,VALID,0,VALID,23.7035,VALID,31,VALID,0,
2012-04-28, 03:55:04,VALID,1004.39,VALID,0,VALID,93.8963,VALID,0,VALID,23.7017,VALID,31,VALID,0,
2012-04-28, 03:56:04,VALID,1004.39,VALID,0,VALID,93.8963,VALID,0,VALID,23.7035,VALID,31,VALID,0,
2012-04-28, 03:57:04,VALID,1004.41,VALID,0,VALID,93.9115,VALID,0,VALID,23.7053,VALID,31,VALID,0,
2012-04-28, 03:58:04,VALID,1004.4,VALID,0,VALID,93.9573,VALID,0,VALID,23.7035,VALID,31,VALID,0,